Weather History for Aiken, SC

Change the Weather History Date:

Sunday, April 13, 2014

  Actual Average Record
Temperature  
Mean Temperature 68 °F -  
Max Temperature 80 °F 78 °F 80 °F (2014)
Min Temperature 55 °F 50 °F 37 °F (2012)
Cooling Degree Days 2    
Growing Degree Days 18 (Base 50)    
Moisture  
Dew Point 58 °F    
Average Humidity 70    
Maximum Humidity 100    
Minimum Humidity 45    
Precipitation  
Precipitation 0.00 in - - ()
Sea Level Pressure  
Sea Level Pressure 30.18 in    
Wind  
Wind Speed 6 mph (SSE)    
Max Wind Speed 14 mph    
Max Gust Speed 18 mph    
Visibility 10 miles    
Events      
Averages and records for this station are not official NWS values.
T = Trace of Precipitation, MM = Missing Value Source: NWS Daily Summary

Daily Weather History Graph

Daily Weather History Graph

Search for Another Location

Airport:

Trip Planner

Search our weather history database for the weather conditions in past years. The results will help you decide how hot, cold, wet, or windy it might be!

Date:

Astronomy

Apr. 13, 2014 Rise Set
Actual Time 6:58 AM EDT 7:56 PM EDT
Civil Twilight 6:33 AM EDT 8:21 PM EDT
Nautical Twilight 6:03 AM EDT 8:52 PM EDT
Astronomical Twilight 5:31 AM EDT 9:23 PM EDT
Moon 6:36 PM EDT (4/13) 5:51 AM EDT (4/13)
Length of Visible Light 13h 48m
Length of Day
12h 57m
Waxing Gibbous, 97% of the Moon is Illuminated
Apr 13
Waxing Gibbous
Apr 15
Full
Apr 22
Last Quarter
Apr 29
New
May 6
First Quarter

Hourly Weather History & Observations

Time (EDT) Temp. Heat Index Dew Point Humidity Pressure Visibility Wind Dir Wind Speed Gust Speed Precip Events Conditions
12:15 AM 64.4 °F - 55.4 °F 73% 30.21 in 10.0 mi South 5.8 mph - N/A   Clear
12:35 AM 62.6 °F - 55.4 °F 77% 30.21 in 10.0 mi South 5.8 mph - N/A   Clear
12:55 AM 62.6 °F - 55.4 °F 77% 30.21 in 10.0 mi South 6.9 mph - N/A   Clear
1:15 AM 62.6 °F - 53.6 °F 72% 30.21 in 10.0 mi South 5.8 mph - N/A   Clear
1:35 AM 62.6 °F - 53.6 °F 72% 30.20 in 10.0 mi South 8.1 mph - N/A   Clear
1:55 AM 62.6 °F - 53.6 °F 72% 30.20 in 10.0 mi South 6.9 mph - N/A   Clear
2:15 AM 60.8 °F - 53.6 °F 77% 30.20 in 10.0 mi South 6.9 mph - N/A   Clear
2:35 AM 60.8 °F - 53.6 °F 77% 30.19 in 10.0 mi South 8.1 mph - N/A   Clear
2:55 AM 60.8 °F - 53.6 °F 77% 30.19 in 10.0 mi South 6.9 mph - N/A   Clear
3:15 AM 60.8 °F - 53.6 °F 77% 30.19 in 10.0 mi SSE 6.9 mph - N/A   Clear
3:35 AM 59.0 °F - 53.6 °F 82% 30.19 in 10.0 mi South 5.8 mph - N/A   Clear
3:55 AM 59.0 °F - 53.6 °F 82% 30.19 in 10.0 mi South 4.6 mph - N/A   Clear
4:15 AM 59.0 °F - 53.6 °F 82% 30.19 in 10.0 mi South 4.6 mph - N/A   Clear
4:35 AM 59.0 °F - 53.6 °F 82% 30.19 in 10.0 mi South 4.6 mph - N/A   Clear
5:15 AM 59.0 °F - 55.4 °F 88% 30.19 in 10.0 mi South 4.6 mph - N/A   Clear
5:35 AM 59.0 °F - 55.4 °F 88% 30.19 in 10.0 mi South 4.6 mph - N/A   Clear
5:55 AM 59.0 °F - 55.4 °F 88% 30.19 in 10.0 mi Calm Calm - N/A   Clear
6:15 AM 57.2 °F - 55.4 °F 94% 30.20 in 10.0 mi Calm Calm - N/A   Clear
6:35 AM 57.2 °F - 57.2 °F 100% 30.21 in 10.0 mi Calm Calm - N/A   Clear
6:55 AM 55.4 °F - 55.4 °F 100% 30.22 in 10.0 mi Calm Calm - N/A   Clear
7:15 AM 55.4 °F - 55.4 °F 100% 30.23 in 10.0 mi Calm Calm - N/A   Clear
7:35 AM 55.4 °F - 55.4 °F 100% 30.23 in 10.0 mi Calm Calm - N/A   Clear
7:55 AM 59.0 °F - 59.0 °F 100% 30.23 in 10.0 mi Calm Calm - N/A   Clear
8:15 AM 60.8 °F - 60.8 °F 100% 30.23 in 10.0 mi Calm Calm - N/A   Clear
8:35 AM 60.8 °F - 60.8 °F 100% 30.23 in 10.0 mi South 4.6 mph - N/A   Clear
8:55 AM 62.6 °F - 60.8 °F 94% 30.24 in 10.0 mi SSE 4.6 mph - N/A   Clear
9:35 AM 68.0 °F - 60.8 °F 78% 30.24 in 10.0 mi SSW 9.2 mph - N/A   Clear
10:15 AM 71.6 °F - 62.6 °F 73% 30.25 in 10.0 mi SSW 11.5 mph 16.1 mph N/A   Clear
10:35 AM 71.6 °F - 62.6 °F 73% 30.25 in 10.0 mi SSW 9.2 mph - N/A   Clear
11:15 AM 73.4 °F - 62.6 °F 69% 30.25 in 10.0 mi SSW 10.4 mph - N/A   Clear
11:35 AM 77.0 °F - 62.6 °F 61% 30.25 in 10.0 mi SSW 10.4 mph - N/A   Clear
11:55 AM 77.0 °F - 60.8 °F 57% 30.24 in 10.0 mi SSW 8.1 mph - N/A   Clear
12:15 PM 77.0 °F - 60.8 °F 57% 30.23 in 10.0 mi WSW 10.4 mph - N/A   Clear
12:35 PM 77.0 °F - 60.8 °F 57% 30.22 in 10.0 mi SE 8.1 mph - N/A   Scattered Clouds
12:55 PM 77.0 °F - 60.8 °F 57% 30.22 in 10.0 mi SSW 8.1 mph - N/A   Scattered Clouds
1:15 PM 78.8 °F - 60.8 °F 54% 30.20 in 10.0 mi SSW 5.8 mph 16.1 mph N/A   Scattered Clouds
1:35 PM 78.8 °F - 60.8 °F 54% 30.19 in 10.0 mi South 5.8 mph - N/A   Scattered Clouds
1:55 PM 78.8 °F - 60.8 °F 54% 30.18 in 10.0 mi SSE 9.2 mph - N/A   Scattered Clouds
2:15 PM 80.6 °F 81.1 °F 59.0 °F 48% 30.18 in 10.0 mi South 10.4 mph - N/A   Scattered Clouds
2:35 PM 80.6 °F 81.1 °F 59.0 °F 48% 30.17 in 10.0 mi SE 11.5 mph 16.1 mph N/A   Mostly Cloudy
2:55 PM 78.8 °F - 59.0 °F 51% 30.17 in 10.0 mi SE 8.1 mph - N/A   Mostly Cloudy
3:15 PM 78.8 °F - 59.0 °F 51% 30.16 in 10.0 mi SE 9.2 mph - N/A   Overcast
3:35 PM 80.6 °F 81.1 °F 59.0 °F 48% 30.15 in 10.0 mi SE 10.4 mph 18.4 mph N/A   Mostly Cloudy
4:15 PM 80.6 °F 81.1 °F 59.0 °F 48% 30.13 in 10.0 mi South 13.8 mph - N/A   Mostly Cloudy
4:35 PM 78.8 °F - 59.0 °F 51% 30.13 in 10.0 mi SSE 6.9 mph - N/A   Mostly Cloudy
4:55 PM 80.6 °F 81.1 °F 59.0 °F 48% 30.13 in 10.0 mi SSE 10.4 mph 16.1 mph N/A   Mostly Cloudy
5:15 PM 78.8 °F - 59.0 °F 51% 30.12 in 10.0 mi SE 9.2 mph - N/A   Mostly Cloudy
5:35 PM 78.8 °F - 57.2 °F 47% 30.12 in 10.0 mi SE 9.2 mph - N/A   Mostly Cloudy
5:55 PM 80.6 °F 80.8 °F 57.2 °F 45% 30.12 in 10.0 mi SE 9.2 mph - N/A   Overcast
6:15 PM 78.8 °F - 59.0 °F 51% 30.11 in 10.0 mi SE 9.2 mph - N/A   Overcast
6:35 PM 78.8 °F - 59.0 °F 51% 30.11 in 10.0 mi SSE 8.1 mph 16.1 mph N/A   Overcast
7:15 PM 77.0 °F - 55.4 °F 47% 30.11 in 10.0 mi SSE 10.4 mph - N/A   Mostly Cloudy
7:35 PM 75.2 °F - 55.4 °F 50% 30.11 in 10.0 mi SE 8.1 mph - N/A   Scattered Clouds
7:55 PM 73.4 °F - 55.4 °F 53% 30.11 in 10.0 mi SSE 5.8 mph - N/A   Clear
8:15 PM 73.4 °F - 57.2 °F 57% 30.11 in 10.0 mi SSE 5.8 mph - N/A   Scattered Clouds
8:35 PM 71.6 °F - 57.2 °F 60% 30.12 in 10.0 mi SE 6.9 mph - N/A   Clear
8:55 PM 71.6 °F - 57.2 °F 60% 30.11 in 10.0 mi SE 8.1 mph - N/A   Clear
9:15 PM 71.6 °F - 59.0 °F 64% 30.12 in 10.0 mi SE 8.1 mph - N/A   Clear
9:35 PM 69.8 °F - 59.0 °F 68% 30.13 in 10.0 mi SSE 6.9 mph - N/A   Clear
9:55 PM 69.8 °F - 59.0 °F 68% 30.13 in 10.0 mi SE 10.4 mph 16.1 mph N/A   Clear
10:15 PM 68.0 °F - 59.0 °F 73% 30.14 in 10.0 mi SSE 8.1 mph - N/A   Clear
10:35 PM 68.0 °F - 59.0 °F 73% 30.13 in 10.0 mi SSE 9.2 mph - N/A   Clear
10:55 PM 68.0 °F - 59.0 °F 73% 30.13 in 10.0 mi SE 8.1 mph - N/A   Clear
11:15 PM 68.0 °F - 59.0 °F 73% 30.13 in 10.0 mi SE 9.2 mph - N/A   Clear
11:35 PM 66.2 °F - 59.0 °F 78% 30.13 in 10.0 mi SE 8.1 mph - N/A   Clear
11:55 PM 64.4 °F - 59.0 °F 83% 30.13 in 10.0 mi SE 8.1 mph - N/A   Clear